Weather History for KBHM - May, 2013

Change the Weather History Date:

Sunday, May 12, 2013

  Actual Average Record
Temperature  
Mean Temperature 59 °F 70 °F  
Max Temperature 70 °F 81 °F 96 °F (1962)
Min Temperature 48 °F 59 °F 41 °F (1981)
Degree Days  
Heating Degree Days 5    
Cooling Degree Days 0 6  
Month to date cooling degree days 16 54  
Year to date cooling degree days 93 138  
Growing Degree Days 10 (Base 50)    
Moisture  
Dew Point 43 °F    
Average Humidity 63    
Maximum Humidity 100    
Minimum Humidity 26    
Precipitation  
Precipitation 0.00 in 0.16 in 1.92 in (1920)
Month to date precipitation 3.36 1.94  
Year to date precipitation 27.91 20.92  
Sea Level Pressure  
Sea Level Pressure 30.12 in    
Wind  
Wind Speed 6 mph (North)    
Max Wind Speed 17 mph    
Max Gust Speed 21 mph    
Visibility 10 miles    
Events      
T = Trace of Precipitation, MM = Missing Value Source: NWS Daily Summary

Daily Weather History Graph

Daily Weather History Graph

Search for Another Location

Airport or City:

Trip Planner

Search our weather history database for the weather conditions in past years. The results will help you decide how hot, cold, wet, or windy it might be!

Date:

Astronomy

May. 12, 2013 Rise Set
Actual Time 5:48 AM CDT 7:38 PM CDT
Civil Twilight 5:21 AM CDT 8:05 PM CDT
Nautical Twilight 4:48 AM CDT 8:38 PM CDT
Astronomical Twilight 4:13 AM CDT 9:14 PM CDT
Moon 7:44 AM CDT (5/12) 10:03 PM CDT (5/12)
Length of Visible Light 14h 44m
Length of Day
13h 50m
Waxing Crescent, 7% of the Moon is Illuminated
May 12
Waxing Crescent
May 17
First Quarter
May 24
Full
May 31
Last Quarter
Jun 8
New

Hourly Weather History & Observations

Time (CDT) Temp. Dew Point Humidity Pressure Visibility Wind Dir Wind Speed Gust Speed Precip Events Conditions
12:53 AM 57.0 °F 54.0 °F 89% 30.04 in 10.0 mi North 3.5 mph - N/A   Clear
1:53 AM 55.0 °F 54.0 °F 96% 30.04 in 10.0 mi Calm Calm - N/A   Clear
2:53 AM 54.0 °F 53.1 °F 97% 30.04 in 8.0 mi Calm Calm - N/A   Clear
3:53 AM 53.1 °F 52.0 °F 96% 30.04 in 9.0 mi Calm Calm - N/A   Clear
4:53 AM 52.0 °F 51.1 °F 97% 30.05 in 9.0 mi Calm Calm - N/A   Clear
5:53 AM 53.1 °F 51.1 °F 93% 30.08 in 9.0 mi North 5.8 mph - N/A   Clear
6:53 AM 55.0 °F 52.0 °F 89% 30.11 in 10.0 mi NNE 4.6 mph - N/A   Clear
7:53 AM 55.9 °F 46.9 °F 72% 30.12 in 10.0 mi North 8.1 mph - N/A   Clear
8:53 AM 57.9 °F 43.0 °F 58% 30.16 in 10.0 mi North 13.8 mph - N/A   Clear
9:53 AM 60.1 °F 42.1 °F 51% 30.17 in 10.0 mi North 15.0 mph - N/A   Clear
10:53 AM 62.1 °F 41.0 °F 46% 30.18 in 10.0 mi Variable 6.9 mph - N/A   Clear
11:53 AM 64.0 °F 39.9 °F 41% 30.16 in 10.0 mi NW 8.1 mph 16.1 mph N/A   Clear
12:53 PM 66.0 °F 39.0 °F 37% 30.14 in 10.0 mi NNW 11.5 mph 19.6 mph N/A   Clear
1:53 PM 68.0 °F 37.0 °F 32% 30.14 in 10.0 mi NW 16.1 mph - N/A   Clear
2:53 PM 69.1 °F 35.1 °F 29% 30.13 in 10.0 mi NW 12.7 mph - N/A   Clear
3:53 PM 69.1 °F 34.0 °F 27% 30.13 in 10.0 mi NNW 5.8 mph 16.1 mph N/A   Clear
4:53 PM 69.1 °F 34.0 °F 27% 30.13 in 10.0 mi North 10.4 mph - N/A   Clear
5:53 PM 68.0 °F 35.1 °F 30% 30.12 in 10.0 mi NNE 9.2 mph - N/A   Clear
6:53 PM 64.9 °F 37.9 °F 37% 30.12 in 10.0 mi North 8.1 mph - N/A   Clear
7:53 PM 57.0 °F 43.0 °F 59% 30.14 in 10.0 mi North 3.5 mph - N/A   Clear
8:53 PM 53.1 °F 44.1 °F 71% 30.15 in 10.0 mi North 5.8 mph - N/A   Clear
9:53 PM 53.1 °F 42.1 °F 66% 30.17 in 10.0 mi Calm Calm - N/A   Clear
10:53 PM 51.1 °F 44.1 °F 77% 30.17 in 10.0 mi Calm Calm - N/A   Clear
11:53 PM 53.1 °F 37.9 °F 57% 30.17 in 10.0 mi Calm Calm - N/A   Clear